| time (UTC) | temp C | wind direction | speed KPH | gust KPH | rain 1hr cm | rain 24hr cm | rain mn cm | humidity % | barometer mb |
| 20260905150020 | 28 | 273 | 1.6 | 9.7 | 0.00 | 0.00 | 0.00 | 52 | 1016.3 |
| 20260905144514 | 27 | 324 | 0.0 | 8.0 | 0.00 | 0.00 | 0.00 | 53 | 1016.3 |
| 20260905143010 | 27 | 319 | 4.8 | 8.0 | 0.00 | 0.00 | 0.00 | 57 | 1016.3 |
| 20260905141520 | 26 | 360 | 8.0 | 14.5 | 0.00 | 0.00 | 0.00 | 59 | 1016.1 |
| 20260905140000 | 25 | 346 | 3.2 | 8.0 | 0.00 | 0.00 | 0.00 | 67 | 1016.1 |
| 20260905134600 | 25 | 360 | 3.2 | 8.0 | 0.00 | 0.00 | 0.00 | 67 | 1016.0 |
| 20260905133056 | 23 | 360 | 3.2 | 9.7 | 0.00 | 0.00 | 0.00 | 71 | 1015.9 |
| 20260905131550 | 23 | 321 | 6.4 | 12.9 | 0.00 | 0.00 | 0.00 | 71 | 1015.8 |
| 20260905130044 | 23 | 313 | 4.8 | 9.7 | 0.00 | 0.00 | 0.00 | 71 | 1015.6 |
| 20260905124542 | 23 | 360 | 6.4 | 12.9 | 0.00 | 0.00 | 0.00 | 70 | 1015.5 |
| 20260905123037 | 23 | 360 | 8.0 | 12.9 | 0.00 | 0.00 | 0.00 | 69 | 1015.4 |
| 20260905121534 | 23 | 360 | 6.4 | 14.5 | 0.00 | 0.00 | 0.00 | 67 | 1015.4 |
| 20260905120033 | 23 | 360 | 4.8 | 12.9 | 0.00 | 0.00 | 0.00 | 67 | 1015.2 |
| 20260905114532 | 24 | 360 | 8.0 | 12.9 | 0.00 | 0.00 | 0.00 | 66 | 1015.2 |
| 20260905113030 | 24 | 360 | 6.4 | 12.9 | 0.00 | 0.00 | 0.00 | 66 | 1015.2 |
| 20260905111529 | 25 | 360 | 8.0 | 12.9 | 0.00 | 0.00 | 0.00 | 64 | 1015.2 |
| 20260905110026 | 25 | 360 | 6.4 | 9.7 | 0.00 | 0.00 | 0.00 | 64 | 1015.3 |
| 20260905104526 | 25 | 360 | 9.7 | 14.5 | 0.00 | 0.00 | 0.00 | 64 | 1015.3 |
| 20260905103024 | 25 | 360 | 11.3 | 19.3 | 0.00 | 0.00 | 0.00 | 64 | 1015.2 |
| 20260905101527 | 25 | 360 | 11.3 | 22.5 | 0.00 | 0.00 | 0.00 | 63 | 1015.2 |
| 20260905100023 | 25 | 360 | 9.7 | 17.7 | 0.00 | 0.00 | 0.00 | 64 | 1015.1 |
| 20260905094524 | 25 | 360 | 14.5 | 20.9 | 0.00 | 0.00 | 0.00 | 63 | 1015.2 |
| 20260905093020 | 25 | 360 | 9.7 | 17.7 | 0.00 | 0.00 | 0.00 | 61 | 1015.0 |
| 20260905091621 | 25 | 360 | 12.9 | 17.7 | 0.00 | 0.00 | 0.00 | 60 | 1015.0 |
| 20260905090017 | 25 | 360 | 8.0 | 19.3 | 0.00 | 0.00 | 0.00 | 59 | 1014.9 |
| 20260905084515 | 25 | 360 | 16.1 | 20.9 | 0.00 | 0.00 | 0.00 | 59 | 1015.1 |
| 20260905083019 | 26 | 360 | 12.9 | 22.5 | 0.00 | 0.00 | 0.00 | 57 | 1015.1 |
| 20260905081514 | 25 | 360 | 16.1 | 19.3 | 0.00 | 0.00 | 0.00 | 58 | 1014.9 |
| 20260905080012 | 26 | 360 | 16.1 | 20.9 | 0.00 | 0.00 | 0.00 | 58 | 1014.7 |
| 20260905074516 | 26 | 360 | 14.5 | 19.3 | 0.00 | 0.00 | 0.00 | 58 | 1015.1 |
| 20260905073010 | 26 | 360 | 14.5 | 19.3 | 0.00 | 0.00 | 0.00 | 57 | 1015.2 |
| 20260905071516 | 26 | 360 | 16.1 | 20.9 | 0.00 | 0.00 | 0.00 | 57 | 1015.0 |
| 20260905070008 | 26 | 360 | 12.9 | 19.3 | 0.00 | 0.00 | 0.00 | 56 | 1015.0 |
| 20260905064505 | 26 | 360 | 11.3 | 19.3 | 0.00 | 0.00 | 0.00 | 56 | 1015.1 |
| 20260905063003 | 26 | 169 | 9.7 | 14.5 | 0.00 | 0.00 | 0.00 | 56 | 1015.2 |
| 20260905061501 | 26 | 360 | 8.0 | 12.9 | 0.00 | 0.00 | 0.00 | 55 | 1015.0 |
| 20260905060100 | 26 | 360 | 6.4 | 22.5 | 0.00 | 0.00 | 0.00 | 54 | 1015.2 |
| 20260905054558 | 26 | 360 | 9.7 | 16.1 | 0.00 | 0.00 | 0.00 | 54 | 1015.0 |
| 20260905053054 | 26 | 360 | 4.8 | 14.5 | 0.00 | 0.00 | 0.00 | 54 | 1014.9 |
| 20260905051553 | 26 | 360 | 8.0 | 12.9 | 0.00 | 0.00 | 0.00 | 54 | 1014.7 |
| 20260905050050 | 27 | 360 | 3.2 | 9.7 | 0.00 | 0.00 | 0.00 | 52 | 1014.7 |
| 20260905044549 | 27 | 360 | 4.8 | 14.5 | 0.00 | 0.00 | 0.00 | 53 | 1014.8 |
| 20260905043049 | 27 | 360 | 6.4 | 29.0 | 0.00 | 0.00 | 0.00 | 50 | 1014.8 |
| 20260905041552 | 28 | 360 | 14.5 | 27.4 | 0.00 | 0.00 | 0.00 | 49 | 1015.0 |
| 20260905040054 | 28 | 360 | 16.1 | 27.4 | 0.00 | 0.00 | 0.00 | 47 | 1014.9 |
| 20260905034547 | 28 | 360 | 9.7 | 19.3 | 0.00 | 0.00 | 0.00 | 44 | 1015.0 |
| 20260905033047 | 28 | 360 | 19.3 | 22.5 | 0.00 | 0.00 | 0.00 | 47 | 1014.9 |
| 20260905031548 | 28 | 360 | 19.3 | 24.1 | 0.00 | 0.00 | 0.00 | 46 | 1014.7 |
| 20260905030048 | 27 | 360 | 14.5 | 19.3 | 0.00 | 0.00 | 0.00 | 47 | 1014.6 |
| 20260905024548 | 28 | 360 | 12.9 | 19.3 | 0.00 | 0.00 | 0.00 | 47 | 1014.5 |
| 20260905023047 | 27 | 360 | 16.1 | 19.3 | 0.00 | 0.00 | 0.00 | 47 | 1014.2 |
| 20260905021544 | 27 | 360 | 12.9 | 16.1 | 0.00 | 0.00 | 0.00 | 49 | 1013.6 |
| 20260905020044 | 27 | 360 | 8.0 | 12.9 | 0.00 | 0.00 | 0.00 | 49 | 1013.4 |
| 20260905014543 | 27 | 360 | 14.5 | 19.3 | 0.00 | 0.00 | 0.00 | 48 | 1013.2 |
| 20260905013043 | 27 | 360 | 11.3 | 17.7 | 0.00 | 0.00 | 0.00 | 48 | 1013.0 |
| 20260905011544 | 27 | 360 | 9.7 | 16.1 | 0.00 | 0.00 | 0.00 | 48 | 1012.8 |
| 20260905010045 | 27 | 360 | 17.7 | 24.1 | 0.00 | 0.00 | 0.00 | 48 | 1012.8 |
| 20260905004547 | 27 | 360 | 20.9 | 29.0 | 0.00 | 0.00 | 0.00 | 47 | 1012.7 |
| 20260905003046 | 28 | 360 | 24.1 | 30.6 | 0.00 | 0.00 | 0.00 | 47 | 1012.7 |
| 20260905001540 | 28 | 360 | 19.3 | 29.0 | 0.00 | 0.00 | 0.00 | 47 | 1012.6 |
| 20260905000039 | 28 | 360 | 19.3 | 27.4 | 0.00 | 0.00 | 0.00 | 48 | 1012.7 |
| 20260904234538 | 28 | 360 | 20.9 | 29.0 | 0.00 | 0.23 | 0.00 | 47 | 1013.0 |
| 20260904233038 | 29 | 360 | 17.7 | 27.4 | 0.00 | 0.23 | 0.00 | 47 | 1012.9 |
| 20260904231539 | 30 | 360 | 16.1 | 35.4 | 0.00 | 0.23 | 0.00 | 43 | 1012.8 |
| 20260904230059 | 30 | 360 | 12.9 | 27.4 | 0.00 | 0.23 | 0.00 | 43 | 1013.0 |
| 20260904224535 | 30 | 360 | 22.5 | 29.0 | 0.00 | 0.23 | 0.00 | 42 | 1013.1 |
| 20260904223036 | 30 | 360 | 20.9 | 32.2 | 0.00 | 0.23 | 0.00 | 46 | 1012.6 |
| 20260904221535 | 30 | 360 | 22.5 | 30.6 | 0.00 | 0.23 | 0.00 | 45 | 1012.3 |
| 20260904220035 | 30 | 360 | 24.1 | 35.4 | 0.00 | 0.23 | 0.00 | 44 | 1012.3 |
| 20260904214533 | 31 | 360 | 20.9 | 32.2 | 0.00 | 0.23 | 0.00 | 40 | 1012.3 |
| 20260904213033 | 31 | 360 | 25.7 | 35.4 | 0.00 | 0.23 | 0.00 | 40 | 1012.5 |
| 20260904211534 | 32 | 11 | 14.5 | 20.9 | 0.00 | 0.23 | 0.00 | 38 | 1012.1 |
| 20260904210031 | 32 | 292 | 3.2 | 6.4 | 0.00 | 0.23 | 0.00 | 35 | 1012.3 |
| 20260904204531 | 33 | 277 | 8.0 | 19.3 | 0.00 | 0.23 | 0.00 | 33 | 1012.5 |
| 20260904203029 | 34 | 315 | 12.9 | 20.9 | 0.00 | 0.23 | 0.00 | 31 | 1012.6 |
| 20260904201527 | 35 | 268 | 17.7 | 27.4 | 0.00 | 0.23 | 0.00 | 30 | 1012.7 |
| 20260904200025 | 36 | 273 | 16.1 | 22.5 | 0.00 | 0.23 | 0.00 | 30 | 1013.1 |
| 20260904194524 | 35 | 248 | 3.2 | 12.9 | 0.00 | 0.23 | 0.00 | 31 | 1013.4 |
| 20260904193034 | 35 | 232 | 3.2 | 8.0 | 0.00 | 0.23 | 0.00 | 32 | 1013.9 |
| 20260904191521 | 35 | 246 | 4.8 | 24.1 | 0.00 | 0.23 | 0.00 | 34 | 1014.1 |
| 20260904190032 | 33 | 275 | 1.6 | 9.7 | 0.00 | 0.23 | 0.00 | 35 | 1014.3 |
| 20260904184514 | 35 | 273 | 6.4 | 17.7 | 0.00 | 0.23 | 0.00 | 32 | 1014.4 |
| 20260904183011 | 33 | 300 | 3.2 | 9.7 | 0.00 | 0.23 | 0.00 | 36 | 1014.6 |
| 20260904181508 | 32 | 250 | 1.6 | 16.1 | 0.00 | 0.23 | 0.00 | 37 | 1014.9 |
| 20260904180006 | 32 | 360 | 6.4 | 16.1 | 0.00 | 0.23 | 0.00 | 37 | 1015.1 |
| 20260904174502 | 32 | 221 | 1.6 | 6.4 | 0.00 | 0.23 | 0.00 | 38 | 1015.4 |
| 20260904173100 | 33 | 175 | 3.2 | 12.9 | 0.00 | 0.23 | 0.00 | 37 | 1015.6 |
| 20260904171554 | 31 | 222 | 1.6 | 14.5 | 0.00 | 0.23 | 0.00 | 41 | 1015.5 |
| 20260904170053 | 31 | 212 | 6.4 | 11.3 | 0.00 | 0.23 | 0.00 | 39 | 1015.7 |
| 20260904164547 | 30 | 205 | 3.2 | 12.9 | 0.00 | 0.23 | 0.00 | 44 | 1016.0 |
| 20260904163042 | 30 | 209 | 6.4 | 12.9 | 0.00 | 0.23 | 0.00 | 44 | 1016.0 |
| 20260904161543 | 28 | 360 | 4.8 | 16.1 | 0.00 | 0.23 | 0.00 | 46 | 1016.0 |
| 20260904160038 | 28 | 187 | 4.8 | 16.1 | 0.00 | 0.23 | 0.00 | 48 | 1016.1 |
| 20260904154533 | 28 | 179 | 6.4 | 11.3 | 0.00 | 0.23 | 0.00 | 48 | 1016.1 |
| 20260904153037 | 27 | 196 | 8.0 | 11.3 | 0.00 | 0.23 | 0.00 | 51 | 1016.1 |
| 20260904151529 | 27 | 204 | 1.6 | 9.7 | 0.00 | 0.23 | 0.00 | 55 | 1016.3 |